Year,Month,Day,Hour,Minute,Value (Times are PST for temperature in C)
2010,02,18,00,00,4.30
2010,02,18,00,01,4.30
2010,02,18,00,02,4.30
2010,02,18,00,03,4.30
2010,02,18,00,04,4.30
2010,02,18,00,05,4.30
2010,02,18,00,06,4.30
2010,02,18,00,07,4.20
2010,02,18,00,08,4.20
2010,02,18,00,09,4.20
2010,02,18,00,10,4.20
2010,02,18,00,11,4.10
2010,02,18,00,12,4.10
2010,02,18,00,13,4.10
2010,02,18,00,14,4.00
2010,02,18,00,15,4.00
2010,02,18,00,16,4.00
2010,02,18,00,17,3.90
2010,02,18,00,18,3.90
2010,02,18,00,19,3.90
2010,02,18,00,20,3.90
2010,02,18,00,21,3.90
2010,02,18,00,22,3.80
2010,02,18,00,23,3.80
2010,02,18,00,24,3.80
2010,02,18,00,25,3.80
2010,02,18,00,26,3.90
2010,02,18,00,27,3.90
2010,02,18,00,28,3.90
2010,02,18,00,29,3.90
2010,02,18,00,30,3.90
2010,02,18,00,31,3.90
2010,02,18,00,32,3.90
2010,02,18,00,33,3.90
2010,02,18,00,34,3.90
2010,02,18,00,35,3.90
2010,02,18,00,36,3.90
2010,02,18,00,37,3.80
2010,02,18,00,38,3.80
2010,02,18,00,39,3.80
2010,02,18,00,40,3.80
2010,02,18,00,41,3.80
2010,02,18,00,42,3.80
2010,02,18,00,43,3.80
2010,02,18,00,44,3.80
2010,02,18,00,45,3.90
2010,02,18,00,46,3.90
2010,02,18,00,47,3.90
2010,02,18,00,48,3.90
2010,02,18,00,49,3.90
2010,02,18,00,50,3.90
2010,02,18,00,51,3.90
2010,02,18,00,52,3.90
2010,02,18,00,53,3.90
2010,02,18,00,54,3.90
2010,02,18,00,55,3.80
2010,02,18,00,56,3.80
2010,02,18,00,57,3.80
2010,02,18,00,58,3.80
2010,02,18,00,59,3.70
2010,02,18,01,00,3.70
2010,02,18,01,01,3.70
2010,02,18,01,02,3.70
2010,02,18,01,03,3.70
2010,02,18,01,04,3.70
2010,02,18,01,05,3.70
2010,02,18,01,06,3.70
2010,02,18,01,07,3.60
2010,02,18,01,08,3.60
2010,02,18,01,09,3.60
2010,02,18,01,10,3.60
2010,02,18,01,11,3.60
2010,02,18,01,12,3.60
2010,02,18,01,13,3.60
2010,02,18,01,14,3.60
2010,02,18,01,15,3.60
2010,02,18,01,16,3.60
2010,02,18,01,17,3.60
2010,02,18,01,18,3.60
2010,02,18,01,19,3.60
2010,02,18,01,20,3.60
2010,02,18,01,21,3.60
2010,02,18,01,22,3.60
2010,02,18,01,23,3.60
2010,02,18,01,24,3.60
2010,02,18,01,25,3.60
2010,02,18,01,26,3.50
2010,02,18,01,27,3.50
2010,02,18,01,28,3.50
2010,02,18,01,29,3.40
2010,02,18,01,30,3.40
2010,02,18,01,31,3.40
2010,02,18,01,32,3.40
2010,02,18,01,33,3.30
2010,02,18,01,34,3.30
2010,02,18,01,35,3.30
2010,02,18,01,36,3.30
2010,02,18,01,37,3.30
2010,02,18,01,38,3.30
2010,02,18,01,39,3.20
2010,02,18,01,40,3.20
2010,02,18,01,41,3.20
2010,02,18,01,42,3.20
2010,02,18,01,43,3.20
2010,02,18,01,44,3.20
2010,02,18,01,45,3.20
2010,02,18,01,46,3.20
2010,02,18,01,47,3.20
2010,02,18,01,48,3.30
2010,02,18,01,49,3.30
2010,02,18,01,50,3.30
2010,02,18,01,51,3.30
2010,02,18,01,52,3.40
2010,02,18,01,53,3.40
2010,02,18,01,54,3.50
2010,02,18,01,55,3.50
2010,02,18,01,56,3.50
2010,02,18,01,57,3.60
2010,02,18,01,58,3.60
2010,02,18,01,59,3.60
2010,02,18,02,00,3.60
2010,02,18,02,01,3.60
2010,02,18,02,02,3.60
2010,02,18,02,03,3.60
2010,02,18,02,04,3.60
2010,02,18,02,05,3.60
2010,02,18,02,06,3.60
2010,02,18,02,07,3.60
2010,02,18,02,08,3.70
2010,02,18,02,09,3.70
2010,02,18,02,10,3.70
2010,02,18,02,11,3.70
2010,02,18,02,12,3.70
2010,02,18,02,13,3.80
2010,02,18,02,14,3.80
2010,02,18,02,15,3.90
2010,02,18,02,16,3.90
2010,02,18,02,17,3.90
2010,02,18,02,18,3.90
2010,02,18,02,19,3.90
2010,02,18,02,20,3.90
2010,02,18,02,21,3.90
2010,02,18,02,22,3.90
2010,02,18,02,23,3.90
2010,02,18,02,24,3.90
2010,02,18,02,25,3.90
2010,02,18,02,26,3.90
2010,02,18,02,27,3.90
2010,02,18,02,28,4.00
2010,02,18,02,29,4.00
2010,02,18,02,30,4.00
2010,02,18,02,31,4.10
2010,02,18,02,32,4.10
2010,02,18,02,33,4.10
2010,02,18,02,34,4.10
2010,02,18,02,35,4.10
2010,02,18,02,36,4.10
2010,02,18,02,37,4.10
2010,02,18,02,38,4.10
2010,02,18,02,39,4.20
2010,02,18,02,40,4.20
2010,02,18,02,41,4.20
2010,02,18,02,42,4.20
2010,02,18,02,43,4.20
2010,02,18,02,44,4.10
2010,02,18,02,45,4.10
2010,02,18,02,46,4.10
2010,02,18,02,47,4.10
2010,02,18,02,48,4.10
2010,02,18,02,49,4.10
2010,02,18,02,50,4.10
2010,02,18,02,51,4.10
2010,02,18,02,52,4.10
2010,02,18,02,53,4.10
2010,02,18,02,54,4.10
2010,02,18,02,55,4.10
2010,02,18,02,56,4.10
2010,02,18,02,57,4.10
2010,02,18,02,58,4.10
2010,02,18,02,59,4.10
2010,02,18,03,00,4.10
2010,02,18,03,01,4.10
2010,02,18,03,02,4.00
2010,02,18,03,03,4.00
2010,02,18,03,04,4.00
2010,02,18,03,05,4.00
2010,02,18,03,06,4.00
2010,02,18,03,07,4.00
2010,02,18,03,08,4.00
2010,02,18,03,09,4.00
2010,02,18,03,10,4.10
2010,02,18,03,11,4.10
2010,02,18,03,12,4.10
2010,02,18,03,13,4.10
2010,02,18,03,14,4.20
2010,02,18,03,15,4.20
2010,02,18,03,16,4.20
2010,02,18,03,17,4.20
2010,02,18,03,18,4.20
2010,02,18,03,19,4.20
2010,02,18,03,20,4.20
2010,02,18,03,27,3.90
2010,02,18,04,06,3.40
2010,02,18,04,07,3.40
2010,02,18,04,08,3.40
2010,02,18,04,09,3.40
2010,02,18,04,10,3.40
2010,02,18,04,11,3.40
2010,02,18,04,12,3.40
2010,02,18,04,13,3.40
2010,02,18,04,14,3.40
2010,02,18,04,15,3.40
2010,02,18,04,16,3.40
2010,02,18,04,17,3.50
2010,02,18,04,18,3.50
2010,02,18,04,19,3.50
2010,02,18,04,20,3.60
2010,02,18,04,21,3.60
2010,02,18,04,22,3.60
2010,02,18,04,23,3.60
2010,02,18,04,24,3.60
2010,02,18,05,06,3.50
2010,02,18,05,07,3.50
2010,02,18,05,08,3.50
2010,02,18,05,09,3.50
2010,02,18,05,10,3.50
2010,02,18,05,11,3.50
2010,02,18,05,12,3.50
2010,02,18,05,13,3.50
2010,02,18,05,14,3.50
2010,02,18,05,15,3.50
2010,02,18,05,16,3.50
2010,02,18,05,17,3.50
2010,02,18,05,18,3.50
2010,02,18,05,19,3.50
2010,02,18,05,20,3.40
2010,02,18,05,21,3.40
2010,02,18,05,22,3.40
2010,02,18,05,23,3.40
2010,02,18,05,24,3.40
2010,02,18,05,25,3.40
2010,02,18,05,26,3.40
2010,02,18,05,27,3.30
2010,02,18,05,28,3.30
2010,02,18,06,06,3.30
2010,02,18,06,07,3.30
2010,02,18,06,08,3.30
2010,02,18,06,09,3.30
2010,02,18,06,10,3.30
2010,02,18,06,11,3.30
2010,02,18,06,12,3.30
2010,02,18,06,13,3.30
2010,02,18,06,14,3.30
2010,02,18,06,15,3.30
2010,02,18,06,16,3.30
2010,02,18,06,17,3.30
2010,02,18,06,18,3.30
2010,02,18,06,19,3.30
2010,02,18,06,20,3.30
2010,02,18,06,21,3.30
2010,02,18,06,22,3.40
2010,02,18,06,23,3.40
2010,02,18,06,24,3.40
2010,02,18,06,25,3.40
2010,02,18,06,26,3.40
2010,02,18,06,27,3.40
2010,02,18,06,28,3.40
2010,02,18,06,29,3.40
2010,02,18,06,30,3.40
2010,02,18,06,31,3.40
2010,02,18,06,32,3.40
2010,02,18,06,33,3.30
2010,02,18,06,34,3.30
2010,02,18,06,35,3.30
2010,02,18,06,36,3.30
2010,02,18,06,37,3.20
2010,02,18,06,38,3.20
2010,02,18,06,39,3.20
2010,02,18,06,40,3.10
2010,02,18,06,41,3.10
2010,02,18,06,42,3.10
2010,02,18,06,43,3.10
2010,02,18,06,44,3.00
2010,02,18,06,45,3.00
2010,02,18,06,46,3.00
2010,02,18,06,47,2.90
2010,02,18,06,48,2.90
2010,02,18,06,49,2.80
2010,02,18,06,50,2.80
2010,02,18,06,51,2.80
2010,02,18,06,52,2.80
2010,02,18,06,53,2.80
2010,02,18,06,54,2.80
2010,02,18,06,55,2.80
2010,02,18,06,56,2.80
2010,02,18,06,57,2.80
2010,02,18,06,58,2.80
2010,02,18,06,59,2.80
2010,02,18,07,00,2.80
2010,02,18,07,01,2.90
2010,02,18,07,02,2.90
2010,02,18,07,03,2.90
2010,02,18,07,04,2.90
2010,02,18,07,05,2.90
2010,02,18,07,06,2.90
2010,02,18,07,07,2.90
2010,02,18,07,08,2.90
2010,02,18,07,09,2.90
2010,02,18,07,10,2.90
2010,02,18,07,11,2.90
2010,02,18,07,12,2.90
2010,02,18,07,13,3.00
2010,02,18,07,14,3.00
2010,02,18,07,15,3.00
2010,02,18,07,16,3.00
2010,02,18,07,17,3.00
2010,02,18,07,18,3.00
2010,02,18,07,19,3.00
2010,02,18,07,20,3.00
2010,02,18,07,21,3.00
2010,02,18,07,22,2.90
2010,02,18,07,23,2.90
2010,02,18,07,24,2.90
2010,02,18,07,25,3.00
2010,02,18,07,26,3.00
2010,02,18,07,27,3.00
2010,02,18,07,28,3.00
2010,02,18,07,29,3.10
2010,02,18,07,30,3.10
2010,02,18,07,31,3.10
2010,02,18,07,32,3.00
2010,02,18,07,33,3.00
2010,02,18,07,34,3.00
2010,02,18,07,35,3.00
2010,02,18,07,36,3.10
2010,02,18,07,37,3.10
2010,02,18,07,38,3.10
2010,02,18,07,39,3.10
2010,02,18,07,40,3.10
2010,02,18,07,41,3.10
2010,02,18,07,42,3.10
2010,02,18,07,43,3.20
2010,02,18,07,44,3.20
2010,02,18,07,45,3.30
2010,02,18,07,46,3.30
2010,02,18,07,47,3.30
2010,02,18,07,48,3.30
2010,02,18,07,49,3.30
2010,02,18,07,50,3.30
2010,02,18,07,51,3.30
2010,02,18,07,52,3.30
2010,02,18,07,53,3.30
2010,02,18,07,54,3.40
2010,02,18,07,55,3.40
2010,02,18,07,56,3.40
2010,02,18,07,57,3.40
2010,02,18,07,58,3.50
2010,02,18,07,59,3.50
2010,02,18,08,00,3.50
2010,02,18,08,01,3.60
2010,02,18,08,02,3.60
2010,02,18,08,03,3.60
2010,02,18,08,04,3.60
2010,02,18,08,05,3.70
2010,02,18,08,06,3.70
2010,02,18,08,07,3.80
2010,02,18,08,08,3.80
2010,02,18,08,09,3.90
2010,02,18,08,10,3.90
2010,02,18,08,11,4.00
2010,02,18,08,12,4.00
2010,02,18,08,13,4.10
2010,02,18,08,14,4.10
2010,02,18,08,15,4.20
2010,02,18,08,16,4.20
2010,02,18,08,17,4.20
2010,02,18,08,18,4.30
2010,02,18,08,19,4.30
2010,02,18,08,20,4.30
2010,02,18,08,21,4.40
2010,02,18,08,22,4.50
2010,02,18,08,23,4.50
2010,02,18,08,24,4.50
2010,02,18,08,25,4.60
2010,02,18,08,26,4.60
2010,02,18,08,27,4.70
2010,02,18,08,28,4.70
2010,02,18,08,29,4.80
2010,02,18,08,30,4.80
2010,02,18,08,31,4.90
2010,02,18,08,32,4.90
2010,02,18,08,33,5.00
2010,02,18,08,34,5.00
2010,02,18,08,35,5.10
2010,02,18,08,36,5.10
2010,02,18,08,37,5.20
2010,02,18,08,38,5.20
2010,02,18,08,39,5.30
2010,02,18,08,40,5.30
2010,02,18,08,41,5.40
2010,02,18,08,42,5.40
2010,02,18,08,43,5.50
2010,02,18,08,44,5.50
2010,02,18,08,45,5.60
2010,02,18,08,46,5.60
2010,02,18,08,47,5.70
2010,02,18,08,48,5.70
2010,02,18,08,49,5.70
2010,02,18,08,50,5.80
2010,02,18,08,51,5.80
2010,02,18,08,52,5.80
2010,02,18,08,53,5.80
2010,02,18,08,54,5.90
2010,02,18,08,55,5.90
2010,02,18,08,56,5.90
2010,02,18,08,57,6.00
2010,02,18,08,58,6.00
2010,02,18,08,59,6.00
2010,02,18,09,00,6.10
2010,02,18,09,01,6.10
2010,02,18,09,02,6.10
2010,02,18,09,03,6.10
2010,02,18,09,04,6.20
2010,02,18,09,05,6.20
2010,02,18,09,06,6.20
2010,02,18,09,07,6.20
2010,02,18,09,08,6.20
2010,02,18,09,09,6.30
2010,02,18,09,10,6.30
2010,02,18,09,11,6.40
2010,02,18,09,12,6.40
2010,02,18,09,13,6.50
2010,02,18,09,14,6.50
2010,02,18,09,15,6.50
2010,02,18,09,16,6.60
2010,02,18,09,17,6.60
2010,02,18,09,18,6.60
2010,02,18,09,19,6.60
2010,02,18,09,20,6.70
2010,02,18,09,21,6.70
2010,02,18,09,22,6.70
2010,02,18,09,23,6.80
2010,02,18,09,24,6.90
2010,02,18,09,25,6.90
2010,02,18,09,26,6.90
2010,02,18,09,27,7.00
2010,02,18,09,28,7.00
2010,02,18,09,29,7.00
2010,02,18,09,30,7.00
2010,02,18,09,31,7.00
2010,02,18,09,32,7.00
2010,02,18,09,33,7.00
2010,02,18,09,34,7.00
2010,02,18,09,35,7.00
2010,02,18,09,36,7.00
2010,02,18,09,37,7.10
2010,02,18,09,38,7.10
2010,02,18,09,39,7.10
2010,02,18,09,40,7.10
2010,02,18,09,41,7.10
2010,02,18,09,42,7.10
2010,02,18,09,43,7.10
2010,02,18,09,44,7.10
2010,02,18,09,45,7.10
2010,02,18,09,46,7.10
2010,02,18,09,47,7.10
2010,02,18,09,48,7.10
2010,02,18,09,49,7.10
2010,02,18,09,50,7.10
2010,02,18,09,51,7.10
2010,02,18,09,52,7.10
2010,02,18,09,53,7.10
2010,02,18,09,54,7.10
2010,02,18,09,55,7.10
2010,02,18,09,56,7.10
2010,02,18,09,57,7.10
2010,02,18,09,58,7.10
2010,02,18,09,59,7.10
2010,02,18,10,00,7.10
2010,02,18,10,01,7.10
2010,02,18,10,02,7.10
2010,02,18,10,03,7.10
2010,02,18,10,04,7.10
2010,02,18,10,05,7.10
2010,02,18,10,06,7.20
2010,02,18,10,07,7.20
2010,02,18,10,08,7.20
2010,02,18,10,09,7.20
2010,02,18,10,10,7.20
2010,02,18,10,11,7.20
2010,02,18,10,12,7.20
2010,02,18,10,13,7.30
2010,02,18,10,14,7.30
2010,02,18,10,15,7.30
2010,02,18,10,16,7.40
2010,02,18,10,17,7.40
2010,02,18,10,18,7.40
2010,02,18,10,19,7.40
2010,02,18,10,20,7.50
2010,02,18,10,21,7.40
2010,02,18,10,22,7.40
2010,02,18,10,23,7.40
2010,02,18,10,24,7.40
2010,02,18,10,25,7.40
2010,02,18,10,26,7.40
2010,02,18,10,27,7.50
2010,02,18,10,28,7.50
2010,02,18,10,29,7.50
2010,02,18,10,30,7.60
2010,02,18,10,31,7.60
2010,02,18,10,32,7.60
2010,02,18,10,33,7.70
2010,02,18,10,34,7.70
2010,02,18,10,35,7.70
2010,02,18,10,36,7.70
2010,02,18,10,37,7.70
2010,02,18,10,38,7.70
2010,02,18,10,39,7.70
2010,02,18,10,40,7.70
2010,02,18,10,41,7.70
2010,02,18,10,42,7.60
2010,02,18,10,43,7.60
2010,02,18,10,44,7.60
2010,02,18,10,45,7.70
2010,02,18,10,46,7.70
2010,02,18,10,47,7.70
2010,02,18,10,48,7.70
2010,02,18,10,49,7.60
2010,02,18,10,50,7.60
2010,02,18,10,51,7.60
2010,02,18,10,52,7.60
2010,02,18,10,53,7.60
2010,02,18,10,54,7.60
2010,02,18,10,55,7.60
2010,02,18,10,56,7.60
2010,02,18,10,57,7.70
2010,02,18,10,58,7.70
2010,02,18,10,59,7.70
2010,02,18,11,00,7.70
2010,02,18,11,01,7.70
2010,02,18,11,02,7.70
2010,02,18,11,03,7.70
2010,02,18,11,04,7.70
2010,02,18,11,05,7.70
2010,02,18,11,06,7.70
2010,02,18,11,07,7.70
2010,02,18,11,08,7.70
2010,02,18,11,09,7.70
2010,02,18,11,10,7.70
2010,02,18,11,11,7.80
2010,02,18,11,12,7.80
2010,02,18,11,13,7.80
2010,02,18,11,14,7.90
2010,02,18,11,15,8.00
2010,02,18,11,16,8.10
2010,02,18,11,17,8.10
2010,02,18,11,18,8.20
2010,02,18,11,19,8.20
2010,02,18,11,20,8.30
2010,02,18,11,21,8.30
2010,02,18,11,22,8.30
2010,02,18,11,23,8.30
2010,02,18,11,24,8.30
2010,02,18,11,25,8.30
2010,02,18,11,26,8.40
2010,02,18,11,27,8.40
2010,02,18,11,28,8.40
2010,02,18,11,29,8.40
2010,02,18,11,30,8.40
2010,02,18,11,31,8.40
2010,02,18,11,32,8.40
2010,02,18,11,33,8.40
2010,02,18,11,34,8.40
2010,02,18,11,35,8.40
2010,02,18,11,36,8.40
2010,02,18,11,37,8.40
2010,02,18,11,38,8.30
2010,02,18,11,39,8.30
2010,02,18,11,40,8.30
2010,02,18,11,41,8.20
2010,02,18,11,42,8.20
2010,02,18,11,43,8.20
2010,02,18,11,44,8.20
2010,02,18,11,45,8.10
2010,02,18,11,46,8.10
2010,02,18,11,47,8.10
2010,02,18,11,48,8.10
2010,02,18,11,49,8.10
2010,02,18,11,50,8.10
2010,02,18,11,51,8.00
2010,02,18,11,52,8.00
2010,02,18,11,53,8.00
2010,02,18,11,54,8.00
2010,02,18,11,55,7.90
2010,02,18,11,56,7.90
2010,02,18,11,57,7.90
2010,02,18,11,58,7.90
2010,02,18,11,59,7.70
2010,02,18,12,06,8.10
2010,02,18,12,07,8.10
2010,02,18,12,08,8.10
2010,02,18,12,09,8.10
2010,02,18,12,10,8.10
2010,02,18,12,11,8.20
2010,02,18,12,12,8.20
2010,02,18,12,13,8.20
2010,02,18,12,14,8.20
2010,02,18,12,15,8.20
2010,02,18,12,16,8.20
2010,02,18,12,17,8.20
2010,02,18,12,18,8.20
2010,02,18,12,19,8.20
2010,02,18,12,20,8.20
2010,02,18,12,21,8.30
2010,02,18,12,22,8.30
2010,02,18,12,23,8.30
2010,02,18,12,24,8.30
2010,02,18,12,25,8.40
2010,02,18,12,26,8.40
2010,02,18,12,27,8.40
2010,02,18,12,28,8.40
2010,02,18,12,29,8.40
2010,02,18,12,30,8.40
2010,02,18,12,31,8.40
2010,02,18,12,32,8.50
2010,02,18,12,33,8.50
2010,02,18,12,34,8.60
2010,02,18,12,35,8.60
2010,02,18,12,36,8.60
2010,02,18,12,37,8.50
2010,02,18,12,38,8.50
2010,02,18,12,39,8.40
2010,02,18,12,40,8.40
2010,02,18,12,41,8.40
2010,02,18,12,42,8.30
2010,02,18,12,43,8.30
2010,02,18,12,44,8.30
2010,02,18,12,45,8.30
2010,02,18,12,46,8.30
2010,02,18,12,47,8.30
2010,02,18,12,48,8.40
2010,02,18,12,49,8.40
2010,02,18,12,50,8.40
2010,02,18,12,51,8.40
2010,02,18,12,52,8.40
2010,02,18,12,53,8.40
2010,02,18,12,54,8.40
2010,02,18,12,55,8.40
2010,02,18,12,56,8.40
2010,02,18,12,57,8.50
2010,02,18,12,58,8.50
2010,02,18,12,59,8.60
2010,02,18,13,00,8.60
2010,02,18,13,01,8.70
2010,02,18,13,02,8.70
2010,02,18,13,03,8.00
2010,02,18,13,06,9.00
2010,02,18,13,07,9.00
2010,02,18,13,08,9.10
2010,02,18,13,09,9.10
2010,02,18,13,10,9.10
2010,02,18,13,11,9.20
2010,02,18,13,12,9.20
2010,02,18,13,13,9.20
2010,02,18,13,14,9.20
2010,02,18,13,15,9.20
2010,02,18,13,16,9.20
2010,02,18,13,17,9.20
2010,02,18,13,18,9.10
2010,02,18,13,19,9.10
2010,02,18,13,20,9.00
2010,02,18,13,21,8.90
2010,02,18,13,22,8.90
2010,02,18,13,23,8.90
2010,02,18,13,24,8.90
2010,02,18,13,25,8.90
2010,02,18,13,26,8.90
2010,02,18,13,27,8.90
2010,02,18,13,28,9.00
2010,02,18,13,29,9.10
2010,02,18,13,30,9.20
2010,02,18,13,31,9.30
2010,02,18,13,32,9.30
2010,02,18,13,33,9.40
2010,02,18,13,34,9.40
2010,02,18,13,35,9.40
2010,02,18,13,36,9.50
2010,02,18,13,37,9.50
2010,02,18,13,38,9.50
2010,02,18,13,39,9.50
2010,02,18,13,40,9.50
2010,02,18,13,41,9.50
2010,02,18,13,42,9.50
2010,02,18,13,43,9.50
2010,02,18,13,44,9.50
2010,02,18,13,45,9.50
2010,02,18,13,46,9.50
2010,02,18,13,47,9.50
2010,02,18,13,48,9.50
2010,02,18,13,49,9.50
2010,02,18,13,50,9.50
2010,02,18,13,51,9.50
2010,02,18,13,52,9.40
2010,02,18,13,53,9.40
2010,02,18,13,54,9.40
2010,02,18,13,55,9.40
2010,02,18,13,56,9.40
2010,02,18,13,57,9.40
2010,02,18,13,58,9.40
2010,02,18,13,59,9.50
2010,02,18,14,00,9.50
2010,02,18,14,01,9.50
2010,02,18,14,02,9.50
2010,02,18,14,03,9.50
2010,02,18,14,04,9.50
2010,02,18,14,05,9.50
2010,02,18,14,06,9.60
2010,02,18,14,07,9.60
2010,02,18,14,08,9.60
2010,02,18,14,09,9.60
2010,02,18,14,10,9.60
2010,02,18,14,11,9.60
2010,02,18,14,12,9.60
2010,02,18,14,13,9.50
2010,02,18,14,14,9.40
2010,02,18,14,15,9.40
2010,02,18,14,16,9.40
2010,02,18,14,17,9.50
2010,02,18,14,18,9.50
2010,02,18,14,19,9.50
2010,02,18,14,20,9.50
2010,02,18,14,21,9.60
2010,02,18,14,22,9.60
2010,02,18,14,23,9.60
2010,02,18,14,24,9.60
2010,02,18,14,25,9.60
2010,02,18,14,26,9.60
2010,02,18,14,27,9.60
2010,02,18,14,28,9.50
2010,02,18,14,29,9.40
2010,02,18,14,30,9.40
2010,02,18,14,31,9.30
2010,02,18,14,32,9.30
2010,02,18,14,33,9.20
2010,02,18,14,34,9.20
2010,02,18,14,35,9.20
2010,02,18,14,36,9.10
2010,02,18,14,37,9.10
2010,02,18,14,38,9.10
2010,02,18,14,39,9.00
2010,02,18,14,40,9.00
2010,02,18,14,41,9.00
2010,02,18,14,42,9.00
2010,02,18,14,43,9.10
2010,02,18,14,44,9.10
2010,02,18,14,45,9.10
2010,02,18,14,46,9.10
2010,02,18,14,47,9.10
2010,02,18,14,48,9.10
2010,02,18,14,49,9.00
2010,02,18,14,50,9.10
2010,02,18,14,51,9.00
2010,02,18,14,52,9.10
2010,02,18,14,53,9.10
2010,02,18,14,54,9.10
2010,02,18,14,55,9.20
2010,02,18,14,56,9.20
2010,02,18,14,57,9.20
2010,02,18,14,58,9.20
2010,02,18,14,59,9.20
2010,02,18,15,00,9.20
2010,02,18,15,01,9.20
2010,02,18,15,02,9.20
2010,02,18,15,03,9.20
2010,02,18,15,04,9.20
2010,02,18,15,05,9.20
2010,02,18,15,06,9.20
2010,02,18,15,07,9.20
2010,02,18,15,08,9.20
2010,02,18,15,09,9.20
2010,02,18,15,10,9.20
2010,02,18,15,11,9.50
2010,02,18,16,06,8.70
2010,02,18,16,07,8.70
2010,02,18,16,08,8.70
2010,02,18,16,09,8.70
2010,02,18,16,10,8.60
2010,02,18,16,11,8.60
2010,02,18,16,12,8.60
2010,02,18,16,13,8.50
2010,02,18,16,14,8.40
2010,02,18,16,15,8.40
2010,02,18,16,16,8.40
2010,02,18,16,17,8.30
2010,02,18,16,18,8.30
2010,02,18,16,19,8.20
2010,02,18,16,20,8.20
2010,02,18,16,21,8.20
2010,02,18,16,22,8.10
2010,02,18,16,23,8.10
2010,02,18,16,24,8.10
2010,02,18,16,25,8.10
2010,02,18,16,26,8.00
2010,02,18,16,27,8.00
2010,02,18,16,28,8.00
2010,02,18,16,29,8.00
2010,02,18,16,30,8.00
2010,02,18,16,31,7.90
2010,02,18,16,32,7.90
2010,02,18,16,33,7.90
2010,02,18,16,34,7.90
2010,02,18,16,35,7.90
2010,02,18,16,36,7.90
2010,02,18,16,37,7.80
2010,02,18,16,38,7.80
2010,02,18,16,39,7.80
2010,02,18,16,40,7.80
2010,02,18,16,41,7.80
2010,02,18,16,42,7.70
2010,02,18,16,43,7.70
2010,02,18,16,44,7.70
2010,02,18,16,45,7.70
2010,02,18,16,46,7.70
2010,02,18,16,47,7.60
2010,02,18,16,48,7.60
2010,02,18,16,49,7.60
2010,02,18,16,50,7.60
2010,02,18,16,51,7.50
2010,02,18,16,52,7.50
2010,02,18,16,53,7.40
2010,02,18,16,54,7.40
2010,02,18,16,55,7.40
2010,02,18,16,56,7.30
2010,02,18,16,57,7.30
2010,02,18,16,58,7.30
2010,02,18,16,59,7.20
2010,02,18,17,00,7.20
2010,02,18,17,01,7.20
2010,02,18,17,02,7.20
2010,02,18,17,03,7.10
2010,02,18,17,04,7.10
2010,02,18,17,05,7.00
2010,02,18,17,06,7.00
2010,02,18,17,07,7.00
2010,02,18,17,08,6.90
2010,02,18,17,09,6.90
2010,02,18,17,10,6.90
2010,02,18,17,11,6.80
2010,02,18,17,12,6.80
2010,02,18,17,13,6.80
2010,02,18,17,14,6.70
2010,02,18,17,15,6.70
2010,02,18,17,16,6.70
2010,02,18,17,17,6.70
2010,02,18,17,18,6.70
2010,02,18,17,19,6.60
2010,02,18,17,20,6.60
2010,02,18,17,21,6.60
2010,02,18,17,22,6.60
2010,02,18,17,23,6.60
2010,02,18,17,24,6.50
2010,02,18,17,25,6.50
2010,02,18,17,26,6.50
2010,02,18,17,27,6.40
2010,02,18,17,28,6.40
2010,02,18,17,29,6.40
2010,02,18,17,30,6.40
2010,02,18,17,31,6.40
2010,02,18,17,32,6.30
2010,02,18,17,33,6.30
2010,02,18,17,34,6.30
2010,02,18,17,35,6.30
2010,02,18,17,36,6.30
2010,02,18,17,37,6.20
2010,02,18,17,38,6.20
2010,02,18,17,39,6.20
2010,02,18,17,40,6.10
2010,02,18,17,41,6.10
2010,02,18,17,42,6.10
2010,02,18,17,43,6.10
2010,02,18,17,44,6.10
2010,02,18,17,45,6.00
2010,02,18,17,46,6.00
2010,02,18,17,47,5.90
2010,02,18,17,48,5.90
2010,02,18,17,49,5.90
2010,02,18,17,50,5.80
2010,02,18,17,51,5.80
2010,02,18,17,52,5.80
2010,02,18,17,53,5.80
2010,02,18,17,54,5.70
2010,02,18,17,55,5.70
2010,02,18,17,56,5.70
2010,02,18,17,57,5.70
2010,02,18,17,58,5.60
2010,02,18,17,59,5.60
2010,02,18,18,00,5.60
2010,02,18,18,01,5.60
2010,02,18,18,02,5.60
2010,02,18,18,03,5.60
2010,02,18,18,04,5.50
2010,02,18,18,05,5.50
2010,02,18,18,06,5.50
2010,02,18,18,07,5.50
2010,02,18,18,08,5.50
2010,02,18,18,09,5.50
2010,02,18,18,10,5.50
2010,02,18,18,11,5.50
2010,02,18,18,12,5.50
2010,02,18,18,13,5.40
2010,02,18,18,14,5.40
2010,02,18,18,15,5.40
2010,02,18,18,16,5.40
2010,02,18,18,17,5.40
2010,02,18,18,18,5.40
2010,02,18,18,19,5.40
2010,02,18,18,20,5.40
2010,02,18,18,21,5.40
2010,02,18,18,22,5.30
2010,02,18,18,23,5.30
2010,02,18,18,24,5.30
2010,02,18,18,25,5.30
2010,02,18,18,26,5.30
2010,02,18,18,27,5.20
2010,02,18,18,28,5.20
2010,02,18,18,29,5.20
2010,02,18,18,30,5.20
2010,02,18,18,31,5.20
2010,02,18,18,32,5.20
2010,02,18,18,33,5.20
2010,02,18,18,34,5.20
2010,02,18,18,35,5.20
2010,02,18,18,36,5.20
2010,02,18,18,37,5.20
2010,02,18,18,38,5.20
2010,02,18,18,39,5.20
2010,02,18,18,40,5.20
2010,02,18,18,41,5.20
2010,02,18,18,42,5.20
2010,02,18,18,43,5.30
2010,02,18,18,44,5.30
2010,02,18,18,45,5.30
2010,02,18,18,46,5.30
2010,02,18,18,47,5.30
2010,02,18,18,48,5.30
2010,02,18,18,49,5.30
2010,02,18,18,50,5.40
2010,02,18,18,51,5.40
2010,02,18,18,52,5.40
2010,02,18,18,53,5.40
2010,02,18,18,54,5.40
2010,02,18,18,55,5.40
2010,02,18,18,56,5.40
2010,02,18,18,57,5.40
2010,02,18,18,58,5.40
2010,02,18,18,59,5.40
2010,02,18,19,00,5.40
2010,02,18,19,01,5.40
2010,02,18,19,02,5.40
2010,02,18,19,03,5.50
2010,02,18,19,04,5.50
2010,02,18,19,05,5.40
2010,02,18,19,06,5.40
2010,02,18,19,07,5.40
2010,02,18,19,08,5.40
2010,02,18,19,09,5.40
2010,02,18,19,10,5.40
2010,02,18,19,11,5.30
2010,02,18,19,12,5.30
2010,02,18,19,13,5.30
2010,02,18,19,14,5.30
2010,02,18,19,15,5.30
2010,02,18,19,16,5.30
2010,02,18,19,17,5.40
2010,02,18,19,18,5.40
2010,02,18,19,19,5.40
2010,02,18,19,20,5.30
2010,02,18,19,21,5.40
2010,02,18,19,22,5.30
2010,02,18,19,23,5.30
2010,02,18,19,24,5.30
2010,02,18,19,25,5.30
2010,02,18,19,26,5.30
2010,02,18,19,27,5.40
2010,02,18,19,28,5.40
2010,02,18,19,29,5.40
2010,02,18,19,30,5.40
2010,02,18,19,31,5.40
2010,02,18,19,32,5.40
2010,02,18,19,33,5.40
2010,02,18,19,34,5.40
2010,02,18,19,35,5.40
2010,02,18,19,36,5.40
2010,02,18,19,37,5.40
2010,02,18,19,38,5.40
2010,02,18,19,39,5.40
2010,02,18,19,40,5.40
2010,02,18,19,41,5.50
2010,02,18,19,42,5.50
2010,02,18,19,43,5.50
2010,02,18,19,44,5.50
2010,02,18,19,45,5.40
2010,02,18,19,46,5.40
2010,02,18,19,47,5.40
2010,02,18,19,48,5.40
2010,02,18,19,49,5.40
2010,02,18,19,50,5.40
2010,02,18,19,51,5.40
2010,02,18,19,52,5.30
2010,02,18,19,53,5.30
2010,02,18,19,54,5.30
2010,02,18,19,55,5.30
2010,02,18,19,56,5.30
2010,02,18,19,57,5.30
2010,02,18,19,58,5.20
2010,02,18,19,59,5.20
2010,02,18,20,00,5.20
2010,02,18,20,01,5.20
2010,02,18,20,02,5.20
2010,02,18,20,03,5.20
2010,02,18,20,04,5.20
2010,02,18,20,05,5.20
2010,02,18,20,06,5.20
2010,02,18,20,07,5.20
2010,02,18,20,08,5.20
2010,02,18,20,09,5.20
2010,02,18,20,10,5.10
2010,02,18,20,11,5.10
2010,02,18,20,12,5.10
2010,02,18,20,13,5.10
2010,02,18,20,14,5.00
2010,02,18,20,15,5.00
2010,02,18,20,16,5.00
2010,02,18,20,17,5.00
2010,02,18,20,18,5.00
2010,02,18,20,19,5.00
2010,02,18,20,20,5.00
2010,02,18,20,21,5.00
2010,02,18,20,22,4.90
2010,02,18,20,23,5.00
2010,02,18,20,24,5.00
2010,02,18,20,25,5.00
2010,02,18,20,26,5.00
2010,02,18,20,27,5.10
2010,02,18,20,28,5.10
2010,02,18,20,29,5.10
2010,02,18,20,30,5.10
2010,02,18,20,31,5.40
2010,02,18,21,06,5.10
2010,02,18,21,07,5.20
2010,02,18,21,08,5.20
2010,02,18,21,09,5.20
2010,02,18,21,10,5.20
2010,02,18,21,11,5.20
2010,02,18,21,12,5.10
2010,02,18,21,13,5.10
2010,02,18,21,14,5.10
2010,02,18,21,15,5.10
2010,02,18,21,16,5.10
2010,02,18,21,17,5.00
2010,02,18,21,18,5.00
2010,02,18,21,19,5.00
2010,02,18,21,20,5.00
2010,02,18,21,21,5.00
2010,02,18,21,22,5.00
2010,02,18,21,23,5.00
2010,02,18,21,24,5.00
2010,02,18,21,25,5.00
2010,02,18,21,26,5.10
2010,02,18,21,27,5.10
2010,02,18,21,28,5.10
2010,02,18,21,29,5.10
2010,02,18,21,30,5.10
2010,02,18,21,31,5.10
2010,02,18,21,32,5.10
2010,02,18,21,33,5.10
2010,02,18,21,34,5.10
2010,02,18,21,35,5.10
2010,02,18,21,36,5.00
2010,02,18,21,37,5.00
2010,02,18,21,38,5.00
2010,02,18,21,39,5.00
2010,02,18,21,40,5.00
2010,02,18,21,41,5.00
2010,02,18,21,42,5.00
2010,02,18,21,43,5.10
2010,02,18,21,44,5.10